Flag for Indonesia Weather past 2 weeks in Medan, North Sumatra, Indonesia

Now
81 °F

Passing clouds.


Feels Like: 86 °F
Forecast: 77 / 90 °F
Wind: No wind

Location: Medan / Polonia

Current Time: Jul 25, 2014 at 12:50:52 AM

Latest Report: Jul 25, 2014 at 12:00 AM


Visibility: 2 mi

Pressure: 29.80 "Hg

Humidity: 84%

Dew point: 75 °F

Location of MedanLocation

Historic Weather in Medan — Graph

°F

Medan temperature yesterday

Maximum temperature yesterday: 91 °F (at 2:00 PM)
Minimum temperature yesterday: 75 °F (at 12:30 AM)
Average temperature yesterday: 83 °F

Past Weeks' High & Low Weather Summary

 TemperatureHumidityPressure
High93 °F (Jul 10, 12:30 PM)100% (Jul 10, 6:00 AM)29.86 "Hg (Jul 10, 6:00 AM)
Low73 °F (Jul 19, 5:30 AM)36% (Jul 19, 12:30 PM)29.68 "Hg (Jul 10, 2:30 PM)
Average83 °F78%29.77 "Hg
* Reported Jul 9 11:00 PM — Jul 24 11:30 PM, Medan, Weather by CustomWeather, © 2014

Note: Actual official high and low records may vary slightly from our data, if they occured in-between our weather recording intervals... More about our weather records

Advertising

Medan weather history for previous 24 hours

 ConditionsComfort  
Time TempWeatherWind HumidityBarometerVisibility
11:30 PM
Jul 24
81 °FPassing clouds.5 mph84%29.83 "Hg2 mi
11:00 PM81 °FPassing clouds.5 mph84%29.83 "Hg2 mi
10:30 PM81 °FPassing clouds.2 mph89%29.80 "Hg2 mi
10:00 PM81 °FPassing clouds.2 mph89%29.83 "Hg2 mi
9:30 PM82 °FPassing clouds.2 mph84%29.80 "Hg2 mi
9:00 PM82 °FPassing clouds.2 mph79%29.80 "Hg2 mi
8:30 PM82 °FPassing clouds.No wind79%29.77 "Hg2 mi
8:00 PM86 °FPassing clouds.No wind70%29.74 "Hg2 mi
7:00 PM86 °FPassing clouds.5 mph70%29.74 "Hg3 mi
6:30 PM86 °FScattered clouds.5 mph66%29.74 "Hg3 mi
6:00 PM88 °FScattered clouds.7 mph62%29.71 "Hg3 mi
5:30 PM88 °FScattered clouds.7 mph62%29.71 "Hg3 mi
5:00 PM88 °FScattered clouds.6 mph62%29.71 "Hg3 mi
4:30 PM90 °FScattered clouds.8 mph63%29.71 "Hg2 mi
4:00 PM90 °FScattered clouds.8 mph63%29.71 "Hg2 mi
3:30 PM90 °FScattered clouds.6 mph63%29.71 "Hg2 mi
3:00 PM91 °FScattered clouds.7 mph56%29.71 "Hg2 mi
2:30 PM91 °FScattered clouds.7 mph63%29.74 "Hg3 mi
2:00 PM91 °FScattered clouds.No wind63%29.74 "Hg3 mi
1:30 PM90 °FScattered clouds.5 mph59%29.77 "Hg3 mi
1:00 PM90 °FScattered clouds.6 mph63%29.77 "Hg3 mi
12:30 PM88 °FScattered clouds.7 mph62%29.80 "Hg3 mi
12:00 PM88 °FScattered clouds.5 mph62%29.80 "Hg3 mi
11:30 AM88 °FScattered clouds.3 mph62%29.80 "Hg3 mi
11:00 AM88 °FScattered clouds.6 mph66%29.80 "Hg3 mi
10:30 AM88 °FScattered clouds.6 mph66%29.80 "Hg3 mi
10:00 AM88 °FScattered clouds.5 mph62%29.80 "Hg2 mi
9:30 AM88 °FScattered clouds.No wind62%29.80 "Hg3 mi
9:00 AM82 °FScattered clouds.No wind79%29.80 "Hg2 mi
8:30 AM79 °FScattered clouds.No wind84%29.80 "Hg1 mi
7:30 AM77 °FScattered clouds.No wind89%29.77 "Hg1 mi
7:00 AM77 °FScattered clouds.5 mph89%29.77 "Hg2 mi
6:00 AM77 °FPassing clouds.3 mph89%29.77 "Hg3 mi
5:30 AM77 °FPassing clouds.6 mph89%29.77 "Hg3 mi
5:00 AM77 °FPassing clouds.6 mph89%29.77 "Hg3 mi
4:30 AM75 °FPassing clouds.5 mph94%29.77 "Hg3 mi
4:00 AM75 °FPassing clouds.6 mph89%29.77 "Hg3 mi
3:30 AM75 °FPassing clouds.5 mph89%29.77 "Hg4 mi
3:00 AM77 °FPassing clouds.No wind83%29.77 "Hg4 mi
2:00 AM75 °FPassing clouds.3 mph83%29.77 "Hg4 mi
1:30 AM75 °FPassing clouds.5 mph83%29.80 "Hg4 mi
1:00 AM75 °FPassing clouds.7 mph83%29.80 "Hg4 mi
12:30 AM75 °FPassing clouds.6 mph83%29.83 "Hg4 mi
12:00 AM77 °FPassing clouds.6 mph79%29.83 "Hg3 mi
Weather by CustomWeather, © 2014

See weather overviewHow to use our weather pages